�������l�o���
Date,Time,MP-1(��Sv/h),MP-2(��Sv/h),MP-3(��Sv/h),MP-4(��Sv/h),MP-5(��Sv/h),MP-6(��Sv/h),MP-7(��Sv/h),MP-8(��Sv/h),����,����(m/s),���J
2024/04/11,00:00,0.487,0.742,0.470,0.909,0.645,0.306,0.543,0.507,��,9.2,��
2024/04/11,00:10,0.488,0.743,0.470,0.910,0.644,0.305,0.543,0.509,��,8.8,��
2024/04/11,00:20,0.490,0.742,0.470,0.910,0.643,0.307,0.542,0.508,��,9.0,��
2024/04/11,00:30,0.488,0.746,0.470,0.911,0.645,0.305,0.541,0.508,��,8.6,��
2024/04/11,00:40,0.488,0.744,0.470,0.911,0.647,0.304,0.543,0.507,��,8.3,��
2024/04/11,00:50,0.488,0.743,0.472,0.911,0.645,0.307,0.542,0.506,��쐼,8.5,��
2024/04/11,01:00,0.487,0.745,0.470,0.909,0.645,0.305,0.542,0.507,��쐼,7.7,��
2024/04/11,01:10,0.489,0.744,0.470,0.910,0.645,0.306,0.541,0.506,��쐼,7.5,��
2024/04/11,01:20,0.488,0.745,0.470,0.911,0.644,0.306,0.543,0.509,��쐼,6.5,��
2024/04/11,01:30,0.489,0.743,0.470,0.909,0.644,0.305,0.542,0.508,��,6.7,��
2024/04/11,01:40,0.488,0.742,0.470,0.910,0.646,0.306,0.543,0.508,��쐼,6.3,��
2024/04/11,01:50,0.488,0.743,0.471,0.911,0.646,0.306,0.542,0.508,��쐼,5.5,��
2024/04/11,02:00,0.489,0.741,0.469,0.911,0.646,0.306,0.543,0.509,��쐼,5.7,��
2024/04/11,02:10,0.488,0.744,0.470,0.911,0.644,0.307,0.542,0.507,��,6.2,��
2024/04/11,02:20,0.490,0.742,0.471,0.910,0.646,0.307,0.543,0.507,��,5.6,��
2024/04/11,02:30,0.487,0.745,0.470,0.911,0.645,0.307,0.542,0.508,��쐼,4.7,��
2024/04/11,02:40,0.487,0.743,0.470,0.911,0.644,0.306,0.541,0.508,��,4.8,��
2024/04/11,02:50,0.488,0.744,0.471,0.912,0.645,0.307,0.543,0.509,��,4.0,��
2024/04/11,03:00,0.488,0.743,0.471,0.911,0.646,0.307,0.541,0.507,��,5.4,��
2024/04/11,03:10,0.488,0.743,0.470,0.911,0.646,0.307,0.543,0.507,��,5.1,��
2024/04/11,03:20,0.488,0.746,0.470,0.911,0.646,0.305,0.542,0.507,��,5.1,��
2024/04/11,03:30,0.488,0.744,0.470,0.912,0.646,0.305,0.541,0.509,��,5.8,��
2024/04/11,03:40,0.488,0.742,0.470,0.910,0.646,0.307,0.542,0.508,��,6.6,��
2024/04/11,03:50,0.489,0.741,0.470,0.909,0.646,0.305,0.542,0.508,��,6.5,��
2024/04/11,04:00,0.488,0.743,0.470,0.910,0.646,0.306,0.542,0.507,��,6.8,��
2024/04/11,04:10,0.488,0.743,0.470,0.908,0.646,0.305,0.543,0.508,��,6.9,��
2024/04/11,04:20,0.488,0.743,0.471,0.910,0.646,0.305,0.541,0.507,��,7.1,��
2024/04/11,04:30,0.488,0.744,0.470,0.911,0.645,0.306,0.543,0.509,��쐼,6.6,��
2024/04/11,04:40,0.487,0.743,0.471,0.912,0.646,0.306,0.541,0.508,��쐼,5.8,��
2024/04/11,04:50,0.488,0.744,0.469,0.909,0.647,0.307,0.541,0.508,��쐼,5.7,��
2024/04/11,05:00,0.489,0.744,0.471,0.910,0.644,0.306,0.543,0.508,��,6.0,��
2024/04/11,05:10,0.488,0.745,0.469,0.909,0.646,0.306,0.541,0.508,��,6.2,��
2024/04/11,05:20,0.488,0.744,0.469,0.912,0.645,0.305,0.541,0.507,��쐼,6.3,��
2024/04/11,05:30,0.488,0.743,0.469,0.911,0.645,0.306,0.542,0.508,��,6.5,��
2024/04/11,05:40,0.488,0.741,0.470,0.911,0.644,0.305,0.542,0.509,��쐼,5.8,��
2024/04/11,05:50,0.487,0.742,0.469,0.910,0.646,0.306,0.541,0.507,��쐼,6.0,��
2024/04/11,06:00,0.488,0.742,0.469,0.910,0.645,0.305,0.542,0.508,��쐼,6.8,��
2024/04/11,06:10,0.488,0.742,0.470,0.910,0.646,0.306,0.542,0.507,��,7.8,��
2024/04/11,06:20,0.488,0.743,0.469,0.911,0.646,0.305,0.541,0.508,��,8.1,��
2024/04/11,06:30,0.487,0.744,0.470,0.911,0.647,0.306,0.543,0.509,��쐼,8.8,��
2024/04/11,06:40,0.489,0.744,0.470,0.911,0.644,0.307,0.542,0.508,��,8.7,��
2024/04/11,06:50,0.489,0.743,0.469,0.911,0.646,0.306,0.542,0.508,��쐼,8.1,��
2024/04/11,07:00,0.489,0.745,0.469,0.912,0.645,0.306,0.542,0.508,��쐼,8.8,��
2024/04/11,07:10,0.490,0.746,0.472,0.911,0.646,0.306,0.541,0.507,��쐼,8.4,��
2024/04/11,07:20,0.489,0.746,0.472,0.912,0.646,0.306,0.544,0.508,��쐼,7.9,��
2024/04/11,07:30,0.490,0.743,0.472,0.911,0.645,0.307,0.543,0.509,��,7.3,��
2024/04/11,07:40,0.489,0.744,0.473,0.912,0.648,0.307,0.544,0.508,��,7.4,��
2024/04/11,07:50,0.489,0.743,0.473,0.911,0.648,0.305,0.545,0.510,��쐼,6.8,��
2024/04/11,08:00,0.488,0.744,0.473,0.913,0.648,0.304,0.544,0.508,��,6.3,��
2024/04/11,08:10,0.490,0.745,0.474,0.911,0.649,0.305,0.544,0.508,��,7.5,��
2024/04/11,08:20,0.489,0.742,0.473,0.913,0.648,0.305,0.543,0.510,��,5.6,��
2024/04/11,08:30,0.490,0.741,0.474,0.913,0.648,0.305,0.544,0.509,��,7.4,��
2024/04/11,08:40,0.489,0.743,0.473,0.913,0.647,0.305,0.542,0.509,��,5.3,��
2024/04/11,08:50,0.490,0.743,0.474,0.914,0.647,0.306,0.542,0.508,��쓌,7.0,��
2024/04/11,09:00,0.490,0.744,0.473,0.913,0.649,0.305,0.542,0.507,��쓌,7.2,��
2024/04/11,09:10,0.491,0.744,0.473,0.913,0.649,0.305,0.542,0.507,��쓌,11.0,��
2024/04/11,09:20,0.491,0.743,0.475,0.913,0.649,0.306,0.541,0.507,��쓌,9.6,��
2024/04/11,09:30,0.490,0.745,0.472,0.914,0.650,0.305,0.543,0.506,��쓌,10.9,��
2024/04/11,09:40,0.488,0.744,0.472,0.914,0.647,0.305,0.541,0.507,��쓌,11.3,��
2024/04/11,09:50,0.491,0.745,0.472,0.914,0.649,0.306,0.541,0.507,��쓌,10.2,��
2024/04/11,10:00,0.491,0.745,0.473,0.914,0.648,0.305,0.542,0.507,��쓌,10.7,��
2024/04/11,10:10,0.490,0.745,0.473,0.913,0.647,0.305,0.542,0.508,��쓌,9.8,��
2024/04/11,10:20,0.490,0.746,0.473,0.914,0.648,0.306,0.542,0.507,��쓌,11.6,��
2024/04/11,10:30,0.489,0.748,0.474,0.913,0.649,0.307,0.540,0.508,��쓌,13.1,��
2024/04/11,10:40,0.489,0.745,0.473,0.913,0.649,0.307,0.540,0.508,��쓌,13.0,��
2024/04/11,10:50,0.490,0.745,0.473,0.914,0.648,0.306,0.540,0.506,��쓌,13.3,��
2024/04/11,11:00,0.490,0.747,0.473,0.912,0.648,0.306,0.541,0.508,��쓌,11.6,��
2024/04/11,11:10,0.490,0.745,0.473,0.914,0.647,0.306,0.541,0.507,��쓌,11.6,��
2024/04/11,11:20,0.489,0.744,0.472,0.914,0.649,0.306,0.541,0.508,��쓌,13.3,��
2024/04/11,11:30,0.489,0.746,0.472,0.914,0.649,0.307,0.540,0.508,��쓌,11.6,��
2024/04/11,11:40,0.490,0.747,0.472,0.917,0.649,0.306,0.542,0.509,��쓌,13.0,��
2024/04/11,11:50,0.492,0.746,0.472,0.916,0.651,0.306,0.541,0.508,��쓌,11.3,��
2024/04/11,12:00,0.492,0.746,0.472,0.915,0.651,0.307,0.541,0.509,��쓌,13.0,��
2024/04/11,12:10,0.490,0.748,0.473,0.914,0.652,0.307,0.540,0.508,��쓌,12.7,��
2024/04/11,12:20,0.491,0.750,0.474,0.915,0.650,0.306,0.540,0.507,��쓌,11.4,��
2024/04/11,12:30,0.489,0.749,0.472,0.918,0.651,0.307,0.539,0.509,��쓌,11.8,��
2024/04/11,12:40,0.491,0.749,0.473,0.916,0.651,0.307,0.540,0.507,��쓌,12.5,��
2024/04/11,12:50,0.489,0.749,0.475,0.917,0.652,0.306,0.542,0.508,��쓌,12.4,��
2024/04/11,13:00,0.491,0.750,0.475,0.919,0.651,0.307,0.541,0.509,��쓌,14.6,��
2024/04/11,13:10,0.490,0.751,0.473,0.915,0.652,0.307,0.542,0.509,��쓌,11.9,��
2024/04/11,13:20,0.490,0.748,0.475,0.916,0.651,0.307,0.541,0.508,��쓌,13.5,��
2024/04/11,13:30,0.492,0.748,0.474,0.918,0.652,0.307,0.539,0.509,��쓌,11.6,��
2024/04/11,13:40,0.493,0.748,0.473,0.918,0.652,0.308,0.541,0.507,��쓌,11.3,��
2024/04/11,13:50,0.492,0.751,0.474,0.917,0.654,0.308,0.540,0.509,��쓌,13.0,��
2024/04/11,14:00,0.492,0.750,0.474,0.918,0.652,0.308,0.540,0.508,��쓌,11.8,��
2024/04/11,14:10,0.491,0.749,0.474,0.919,0.652,0.307,0.540,0.508,��쓌,10.2,��
2024/04/11,14:20,0.492,0.750,0.472,0.917,0.652,0.307,0.541,0.509,��쓌,11.6,��
2024/04/11,14:30,0.492,0.749,0.474,0.917,0.653,0.307,0.540,0.509,��쓌,12.4,��
2024/04/11,14:40,0.493,0.748,0.475,0.917,0.653,0.307,0.541,0.509,��쓌,12.2,��
2024/04/11,14:50,0.493,0.748,0.475,0.917,0.653,0.306,0.540,0.510,��쓌,10.7,��
2024/04/11,15:00,0.492,0.751,0.474,0.919,0.654,0.307,0.540,0.509,��쓌,12.4,��
2024/04/11,15:10,0.491,0.749,0.473,0.918,0.653,0.308,0.541,0.508,��쓌,12.2,��
2024/04/11,15:20,0.491,0.749,0.474,0.916,0.653,0.308,0.539,0.508,��쓌,10.9,��
2024/04/11,15:30,0.491,0.750,0.475,0.918,0.653,0.307,0.540,0.507,��쓌,11.8,��
2024/04/11,15:40,0.492,0.751,0.473,0.918,0.653,0.307,0.540,0.507,��쓌,12.7,��
2024/04/11,15:50,0.491,0.749,0.475,0.918,0.654,0.307,0.542,0.508,��쓌,10.2,��
2024/04/11,16:00,0.491,0.750,0.474,0.918,0.654,0.307,0.540,0.508,��,9.1,��
2024/04/11,16:10,0.490,0.752,0.472,0.920,0.653,0.308,0.541,0.509,��,10.2,��
2024/04/11,16:20,0.492,0.751,0.475,0.921,0.653,0.308,0.541,0.509,��,9.9,��
2024/04/11,16:30,0.493,0.752,0.475,0.919,0.654,0.307,0.540,0.509,��쓌,9.3,��
2024/04/11,16:40,0.491,0.752,0.475,0.920,0.652,0.308,0.540,0.508,��,8.4,��
2024/04/11,16:50,0.491,0.750,0.475,0.920,0.654,0.308,0.542,0.507,��,8.4,��
2024/04/11,17:00,0.494,0.752,0.477,0.920,0.653,0.308,0.542,0.509,��쓌,8.8,��
2024/04/11,17:10,0.492,0.752,0.476,0.920,0.653,0.308,0.540,0.510,��,7.8,��
2024/04/11,17:20,0.494,0.753,0.477,0.920,0.654,0.309,0.539,0.511,��,8.0,��
2024/04/11,17:30,0.496,0.752,0.478,0.920,0.654,0.311,0.539,0.510,��쓌,8.0,��
2024/04/11,17:40,0.495,0.754,0.477,0.919,0.653,0.310,0.541,0.510,��,7.0,��
2024/04/11,17:50,0.495,0.754,0.477,0.916,0.655,0.311,0.541,0.512,��,6.7,��
2024/04/11,18:00,0.495,0.754,0.477,0.920,0.656,0.308,0.540,0.510,��,7.2,��
2024/04/11,18:10,0.494,0.753,0.477,0.919,0.656,0.309,0.541,0.512,��,6.7,��
2024/04/11,18:20,0.494,0.755,0.478,0.919,0.657,0.309,0.542,0.511,��,7.0,��
2024/04/11,18:30,0.495,0.754,0.476,0.920,0.656,0.309,0.541,0.512,��,7.3,��
2024/04/11,18:40,0.495,0.754,0.476,0.919,0.657,0.310,0.542,0.510,��,6.6,��
2024/04/11,18:50,0.493,0.756,0.477,0.921,0.655,0.309,0.543,0.509,��,7.0,��
2024/04/11,19:00,0.494,0.755,0.477,0.917,0.656,0.310,0.544,0.511,��,6.6,��
2024/04/11,19:10,0.493,0.753,0.476,0.921,0.658,0.309,0.543,0.512,��,6.4,��
2024/04/11,19:20,0.494,0.754,0.478,0.920,0.655,0.310,0.543,0.510,��,6.2,��
2024/04/11,19:30,0.493,0.754,0.477,0.920,0.657,0.310,0.542,0.511,��,7.2,��
2024/04/11,19:40,0.494,0.754,0.477,0.920,0.655,0.309,0.544,0.512,��,6.5,��
2024/04/11,19:50,0.494,0.753,0.477,0.918,0.656,0.309,0.542,0.510,��,6.6,��
2024/04/11,20:00,0.495,0.754,0.475,0.920,0.657,0.310,0.543,0.510,��,6.7,��
2024/04/11,20:10,0.492,0.755,0.476,0.919,0.655,0.310,0.544,0.510,��쐼,6.6,��
2024/04/11,20:20,0.495,0.755,0.476,0.919,0.656,0.310,0.543,0.511,��쐼,5.9,��
2024/04/11,20:30,0.493,0.755,0.477,0.920,0.656,0.308,0.543,0.510,��쐼,5.3,��
2024/04/11,20:40,0.494,0.755,0.474,0.920,0.657,0.310,0.542,0.512,��쐼,5.7,��
2024/04/11,20:50,0.494,0.754,0.477,0.918,0.656,0.309,0.542,0.511,��쐼,5.4,��
2024/04/11,21:00,0.493,0.754,0.477,0.918,0.658,0.309,0.543,0.509,��쐼,6.7,��
2024/04/11,21:10,0.494,0.754,0.476,0.917,0.657,0.310,0.543,0.509,��쐼,6.8,��
2024/04/11,21:20,0.496,0.753,0.476,0.919,0.655,0.309,0.542,0.510,��쐼,7.4,��
2024/04/11,21:30,0.494,0.755,0.476,0.918,0.657,0.310,0.541,0.508,��쐼,7.7,��
2024/04/11,21:40,0.493,0.753,0.476,0.919,0.654,0.309,0.543,0.511,��쐼,7.6,��
2024/04/11,21:50,0.495,0.754,0.477,0.920,0.657,0.309,0.542,0.508,��쐼,8.0,��
2024/04/11,22:00,0.493,0.754,0.476,0.918,0.657,0.309,0.543,0.512,��쐼,8.0,��
2024/04/11,22:10,0.494,0.754,0.476,0.919,0.656,0.310,0.542,0.510,��쐼,7.7,��
2024/04/11,22:20,0.493,0.754,0.475,0.920,0.657,0.309,0.543,0.510,��쐼,7.6,��
2024/04/11,22:30,0.495,0.752,0.478,0.920,0.656,0.309,0.542,0.510,��쐼,6.5,��
2024/04/11,22:40,0.494,0.755,0.475,0.920,0.655,0.309,0.541,0.511,��쐼,5.0,��
2024/04/11,22:50,0.494,0.752,0.477,0.920,0.656,0.309,0.543,0.512,��쐼,4.6,��
2024/04/11,23:00,0.494,0.755,0.478,0.920,0.656,0.310,0.544,0.510,��쐼,4.6,��
2024/04/11,23:10,0.493,0.755,0.477,0.921,0.658,0.309,0.544,0.510,��쐼,5.0,��
2024/04/11,23:20,0.495,0.754,0.476,0.921,0.656,0.309,0.542,0.511,��쐼,5.0,��
2024/04/11,23:30,0.495,0.756,0.477,0.920,0.656,0.310,0.543,0.511,��쐼,4.3,��
2024/04/11,23:40,0.494,0.754,0.476,0.920,0.656,0.310,0.542,0.510,��쐼,3.0,��
2024/04/11,23:50,0.495,0.754,0.476,0.922,0.656,0.310,0.542,0.509,�쐼,2.0,��
